Regional Weather Roundup
Issued by NWS Sterling, VA

Home | Current Version | Previous Version | Graphics & Text | Print | Product List | Glossary On
Versions: 1 2 3 4 5 6 7 8 9 10 11 12 13 14 15 16 17 18 19 20 21 22 23 24 25 26 27 28 29 30 31 32 33 34 35 36 37 38 39 40 41 42 43 44 45 46 47 48
000
ASUS41 KLWX 252110
RWRLWX

REGIONAL WEATHER ROUNDUP
NATIONAL WEATHER SERVICE BALTIMORE MD/WASHINGTON DC
500 PM EDT MON MAY 25 2015

Note: "FAIR" indicates few or no clouds below 12,000 feet
with no significant weather and/or obstructions to visibility.
 TC=TEMPERATURE CELSIUS

 * =Non NWS site. Station does not report precipitation (e.g. rain,
    snow, etc.), thunder, or fog.

DCZ001-MDZ009-015-VAZ040>042-051-053>054-252200-
WASHINGTON METRO

CITY           SKY/WX    TMP DP  RH WIND       PRES   REMARKS
WASHINGTON NAT PTSUNNY   85  59  41 S17G24    30.21S
DULLES         PTSUNNY   83  59  44 SW12G18   30.19F
ANDREWS AFB    SUNNY     82  59  46 S13       30.21S
FT BELVOIR     SUNNY     83  60  44 S10       30.21S
QUANTICO       MOSUNNY   83  59  44 SW15G22   30.22S
COLLEGE PARK*  SUNNY     84  55  37 S13G18    30.20F
LEESBURG*      SUNNY     86  63  45 S13G26    30.20S
MANASSAS*      MOSUNNY   82  59  44 S12G17    30.20F
GAITHERSBURG*  MOSUNNY   82  57  42 S7        30.24S

$$

MDZ006>007-011-014-252200-
BALTIMORE METRO

CITY           SKY/WX    TMP DP  RH WIND       PRES   REMARKS
BWI AIRPORT    PTSUNNY   83  58  42 S10       30.19F
MD SCIENCE CTR   N/A     84  57  39 MISG      30.20S
MARTIN STATE   MOSUNNY   81  64  57 S18G26    30.22F
ANNAPOLIS      PTSUNNY   77  61  57 S21       30.22S
FORT MEADE*    MOSUNNY   81  55  41 S8        30.22F

$$

MDZ012-015-019>023-252200-
MARYLAND EASTERN SHORE

CITY           SKY/WX    TMP DP  RH WIND       PRES   REMARKS
OCEAN CITY     MOSUNNY   72  61  68 S10G20    30.29S
SALISBURY      MOSUNNY   80  57  45 S17G25    30.26S
BAY BRIDGE AP*   N/A    N/A N/A N/A S13G18    30.22F
CAMBRIDGE*     PTSUNNY   79  59  50 S10G17    30.25S
EASTON*        MOSUNNY   81  63  54 S16G23    30.28R

$$

MDZ017>025-252200-
SOUTHERN MARYLAND

CITY           SKY/WX    TMP DP  RH WIND       PRES   REMARKS
PATUXENT RIVER MOSUNNY   78  62  57 SE15G21   30.23F
ST INIGOES     SUNNY     78  63  59 SE13      30.23F
LEONARDTOWN*   MOSUNNY   81  55  41 S9        30.25S

$$

MDZ003>005-252200-
NORTH CENTRAL MARYLAND

CITY           SKY/WX    TMP DP  RH WIND       PRES   REMARKS
FREDERICK*     NOT AVBL
HAGERSTOWN APT SUNNY     86  57  37 S10G23    30.16F
WESTMINSTER*   MOSUNNY   86  57  37 S12       30.20S

$$

MDZ501>502-252200-
WESTERN MARYLAND

CITY           SKY/WX    TMP DP  RH WIND       PRES   REMARKS
OAKLAND*       SUNNY     77  52  41 SW6       30.25S
CUMBERLAND*    SUNNY     90  52  27 S10       30.16F

$$

VAZ025>031-252200-
SHENANDOAH VALLEY

CITY           SKY/WX    TMP DP  RH WIND       PRES   REMARKS
WINCHESTER*    SUNNY     86  52  30 SE13      30.17F
FRONT ROYAL*   FAIR      82  63  51 S5        30.17F
LURAY*         FAIR      86  61  42 S12G17    30.19S
NEW MARKET*    FAIR      83  58  42 S12G18    30.17F
STAUNTON*      SUNNY     83  55  38 SW13      30.24S
WAYNESBORO*    FAIR      79  58  47 S9        30.24F

$$

WVZ021-048>050-054>055-252200-
EASTERN WEST VIRGINIA PANHANDLE

CITY           SKY/WX    TMP DP  RH WIND       PRES   REMARKS
MARTINSBURG    SUNNY     83  62  49 S10G18    30.17F
PETERSBURG*    SUNNY     83  55  38 SE9       30.15F

$$

VAZ036>039-050-252200-
CENTRAL FOOTHILLS

CITY           SKY/WX    TMP DP  RH WIND       PRES   REMARKS
CHARLOTTESVILL SUNNY     82  57  42 S14       30.22S
CULPEPER*      SUNNY     82  59  45 S10G16    30.21S
ORANGE*        SUNNY     82  57  42 S13G18    30.23F
GORDONSVILLE*  FAIR      82  57  42 S12G20    30.21S
WARRENTON*     FAIR      83  62  48 S14G21    30.20F

$$

VAZ055>057-252200-
NORTH AND CENTRAL PIEDMONT

CITY           SKY/WX    TMP DP  RH WIND       PRES   REMARKS
FREDERICKSBRG* SUNNY     85  58  38 SW9       30.21F
STAFFORD*      SUNNY     83  55  37 S12       30.26S

$$

NCZ024-NYZ072-PAZ021-071-VAZ022-071-252200-
OTHER REGIONAL OBSERVATIONS

CITY           SKY/WX    TMP DP  RH WIND       PRES   REMARKS
NEW YORK CITY  MOSUNNY   84  56  38 VRB6      30.18F
PHILADELPHIA   PTSUNNY   86  54  33 SW21      30.20S
PITTSBURGH     PTSUNNY   82  58  43 SW16G23   30.13S
ROANOKE        MOSUNNY   82  57  42 S16       30.25F
RICHMOND       PTSUNNY   84  56  38 S14       30.24S
RALEIGH        MOSUNNY   84  56  38 S8        30.26F

$$

ANZ530>537-252200-
MARINE OBSERVATIONS

STATION/POSITION TIME  TEMP    WIND        PRES
                       AIR SEA DIR/SP/G
                 (UTC) (F)     (DEG/KT/KT) (MB)
THOMAS PT LIGHT  2100   72 67  160/ 21/ 22 1023.6F
BALT KEY BRIDGE  2000   80     180/ 14/ 19 1022.3F
LEWISETTA        2000   80 73              1023.8F
SOLOMONS ISLAND  2000      71                N/A
PINEY POINT      2000          230/ 13/ 15   N/A

$$



USA.gov is the U.S. government's official web portal to all federal, state and local government web resources and services.